FENGYUN 1C DEB, 38514

Orbit data source: Space-Track

FENGYUN 1C DEB, 38514 is space debris in SSO originally from a launch on Mon, 10 May 1999 UTC launched from the Taiyaun Space Center, China (TSC). Fengyun 1C debris stems from the Chinese weather satellite Fengyun-1C, which was intentionally destroyed by a Chinese anti-satellite missile in 2007. This event dramatically increased the amount of space debris, with thousands of trackable fragments posing hazards to satellites and human spaceflight. The Fengyun 1C debris cloud has become a focal point in discussions about space sustainability and the need for international regulations to prevent the creation of new debris.

Loading next visibility...
Identifier
38514, 1999-025ESZ
Orbit
SSO
Country
Flag of CNCN / PRC
Related business
Manufacturer
Unknown
Mission
Spacecraft
Bus & Motor
Unknown
Mass
Unknown
Launch date (UTC)
1999-05-10 (26 years ago)
Launch vehicle
Unknown
Launch site
Taiyaun Space Center, China (TSC)
Object type
Payload
Rocket body
Debris
Shape & HBR
Unknown shape, 0.1 m
Radar Cross Section
Small (<0.1 m²)

Expand to show TLE details & history
Last TLE update: 5 days ago

TLE from 5 days ago
0 FENGYUN 1C DEB
1 38514U 99025ESZ 25305.37265494  .00020991  00000-0  76130-2 0  9991
2 38514  98.0582 338.9139 0279638 134.6555 227.7787 14.13830011874118
Epoch: 2025-11-01T08:56Z
TLE epoch observation values (Epoch: 2025-11-01T08:56:37.386Z)
Latitude
-0.00005°
Longitude
163.85446°
Altitude
988.025 km
Speed
7.287 km/s
True Right ascension
22h 35m 39s
True Declination
0° 00' 00"
Sunlit
Object was in full shadow at epoch
Visualization orbit readout
Latitude
Unknown
Longitude
Unknown
Altitude
Unknown
Speed
Unknown
Apparent Right ascension
Unknown
Apparent Declination
Unknown
Sunlit
N/A
Visualization observer readout
Local Sidereal Time
00:24:14
Azimuth
Unknown
Elevation
Unknown
Doppler factor
Unknown
Orbital elements
Apogee altitude
1,045.371 km
Perigee altitude
641.486 km
Semi-major axis
7,221.566 km
Eccentricity
0.02796
Inclination
98.0582°
RAAN
338.9139°
Arg. of periapsis
134.6555°
True anomaly
225.4608°
Mean anomaly
227.7787°
Eccentric anomaly
226.6143°
Mean motion
3.53668 °/min
Orbital period
101.79 mins
BSTAR
0.007613
Loading maneuver chart data...
Computing Atmospheric mass density...

Documentation

Showing up to 5 results
|